Location: Clatteringshaws Loch
(55.0508°N, 4.2860°W)
Time: 21:16:36
(UTC+01:00)

SR - Visible Passes

Search period start: 30 May 2016 00:00
Search period end: 09 June 2016 00:00
Orbit: 581 x 877 km, 66.7° (Epoch: 29 May)

Date Brightness Start Highest point End Pass type
(mag) Time Alt. Az. Time Alt. Az. Time Alt. Az.
30 May ? 00:14:54 10° NW 00:19:21 54° SW 00:22:16 19° SSE visible
30 May ? 23:25:31 10° NW 23:30:08 88° NE 23:34:02 13° SE visible
31 May ? 01:08:34 10° WNW 01:11:30 17° WSW 01:13:27 13° SW visible
31 May ? 22:36:12 10° NW 22:40:45 54° NE 22:45:01 10° ESE visible
01 Jun ? 00:18:38 10° NW 00:22:36 31° WSW 00:25:16 16° S visible
01 Jun ? 23:29:06 10° NW 23:33:32 56° SW 23:37:07 14° SSE visible
02 Jun ? 22:39:43 10° NW 22:44:19 85° NE 22:48:37 10° SE visible
03 Jun ? 00:22:43 10° WNW 00:25:43 18° WSW 00:28:25 11° SSW visible
03 Jun ? 23:32:49 10° NW 23:36:48 32° WSW 23:40:20 11° S visible
04 Jun ? 22:43:17 10° NW 22:47:43 57° SW 22:51:54 10° SSE visible
05 Jun ? 23:36:52 10° WNW 23:39:56 19° WSW 23:42:54 10° SSW visible
06 Jun ? 22:46:59 10° NW 22:51:00 33° WSW 22:54:49 10° S visible
07 Jun ? 23:42:37 10° W 23:42:56 10° WSW 23:43:15 10° WSW visible
08 Jun ? 22:51:00 10° WNW 22:54:08 19° WSW 22:57:10 10° SSW visible
